Location: Elliot Lake
(46.3862°N, 82.6509°W)
Time: 23:37:58
(UTC-04:00)

ISS - Visible Passes

Search period start: 25 September 2017 00:00
Search period end: 05 October 2017 00:00
Orbit: 401 x 407 km, 51.6° (Epoch: 26 September)

Date Brightness Start Highest point End Pass type
(mag) Time Alt. Az. Time Alt. Az. Time Alt. Az.
25 Sep -1.8 21:28:59 10° SW 21:30:17 22° SW 21:30:17 22° SW visible
26 Sep -3.2 20:36:56 10° SSW 20:39:58 35° SE 20:40:35 32° ESE visible
26 Sep -0.5 22:13:11 10° W 22:13:15 10° W 22:13:15 10° W visible
27 Sep -2.3 19:45:13 10° S 19:47:45 21° SE 19:50:18 10° E visible
27 Sep -3.1 21:20:41 10° WSW 21:23:22 54° W 21:23:22 54° W visible
28 Sep -3.9 20:28:19 10° SW 20:31:35 74° SSE 20:33:19 25° ENE visible
28 Sep -0.7 22:05:11 10° W 22:05:59 16° WNW 22:05:59 16° WNW visible
29 Sep -2.9 21:12:35 10° W 21:15:44 44° NNW 21:15:48 44° NNW visible
30 Sep -3.5 20:20:01 10° WSW 20:23:15 62° NNW 20:25:32 18° NE visible
30 Sep -0.9 21:57:08 10° WNW 21:58:11 17° WNW 21:58:11 17° WNW visible
01 Oct -2.6 21:04:31 10° WNW 21:07:33 34° N 21:07:50 33° N visible
02 Oct -2.8 20:11:52 10° W 20:14:59 40° NNW 20:17:26 15° NE visible
02 Oct -1.0 21:48:57 10° WNW 21:50:04 18° NW 21:50:04 18° NW visible
03 Oct -2.5 20:56:23 10° WNW 20:59:21 31° N 20:59:37 30° N visible
04 Oct -2.5 20:03:44 10° WNW 20:06:44 32° N 20:09:09 14° NE visible
04 Oct -1.1 21:40:34 10° WNW 21:41:47 19° NW 21:41:47 19° NW visible
